www.pogodaiklimat.ru

Погода и климат >> Архив погоды >> Албания >> Шкодра


ПОГОДА в Шкодре

  • Прогноз погоды в Шкодре
  • Монитор погоды в Шкодре

АРХИВ ПОГОДЫ в Шкодре

Время (UTC), дата Ветер
(напр.,м/с)
 
Видим.   Явления Облачность Т
(С)
Тd
(С)
f
(%)
Тe
(С)
Тes
(С)
Комфортность P
(гПа)
Po
(гПа)
Тmin
(С)
Tmax
(С)
R
(мм)
R24
(мм)
S
(см)
03 9.06 ЮВ 2 10 км 3/0
[Ac trans]
+21.2 +20.3 95 +26 +26 душно 1019.1 1014.0
06 9.06 штиль 0 20 км ясно +20.0 +18.4 91 +23 +30 комфорт 1019.1 1014.0 +18.4
09 9.06 З 2 20 км ясно +27.6 +19.4 61 +33 +50 очень
душно
1020.7 1015.8
15 9.06 штиль 0 20 км ясно +33.6 +18.2 40 +38 +47 очень
душно
1015.7 1010.9
18 9.06 В 4 20 км ясно +32.0 +17.5 42 +36 +36 очень
душно
1014.7 1009.9 +34.0
21 9.06 В 6 10 км ясно +29.0 +16.9 48 +33 +33 очень
душно
1014.8 1009.9
00 10.06 В 4 10 км ясно +28.2 +16.1 48 +31 +31 душно 1014.8 1009.9
03 10.06 В 6 10 км ясно +24.6 +19.2 72 +30 +30 очень
душно
1015.4 1010.5
06 10.06 З 2 20 км ясно +24.0 +20.7 82 +30 +35 очень
душно
1015.4 1010.4 +22.0
09 10.06 З 4 20 км 1/0
[Ci sp]
+28.4 +20.5 62 +35 +46 очень
душно
1016.2 1011.2
12 10.06 З 6 20 км ясно +31.6 +16.4 40 +35 +42 очень
душно
1013.4 1008.5
15 10.06 СЗ 6 10 км 5/5 1200 м
[Sc]
+31.2 +19.6 50 +37 +38 очень
душно
1011.9 1007.1
18 10.06 З 6 20 км 4/0
[Ac trans]
+31.0 +21.7 58 +39 +39 очень
душно
1009.9 1005.1 +33.4
21 10.06 В 6 10 км ясно +24.0 +21.1 84 +30 +30 очень
душно
1011.4 1006.4
00 11.06 В 6 10 км ясно +23.0 +20.8 87 +30 +30 очень
душно
1012.0 1007.0
03 11.06 В 6 10 км ясно +21.2 +20.8 98 +27 +27 душно 1011.3 1006.2
06 11.06 В 6 20 км ясно +22.6 +19.3 82 +29 +31 очень
душно
1011.2 1006.2 +19.8
09 11.06 ЮВ 6 20 км ясно +28.0 +18.4 56 +33 +40 очень
душно
1010.6 1005.7
12 11.06 штиль 0 20 км 1/1 1500 м
[Cu hum]
+31.2 +16.4 41 +34 +57 опасность
солнечного
удара
1009.9 1005.1
15 11.06 Ю 6 20 км 3/3 1380 м
[Cu med, cong]
+31.0 +17.7 45 +35 +37 очень
душно
1009.7 1004.9
18 11.06 ЮВ 6 15 км 5/3 1500 м
[Cu med, cong Ac trans]
+28.6 +16.1 47 +32 +32 душно 1010.7 1005.8 +32.6
21 11.06 ЮВ 6 10 км 8/4 1500 м
[Cu med, cong Ac trans]
+25.8 +18.9 66 +31 +31 очень
душно
1011.9 1006.9
00 12.06 В 4 10 км 5/0
[Ac trans]
+24.0 +22.2 90 +31 +31 очень
душно
1011.9 1006.9
03 12.06 В 6 10 км ясно +19.6 +18.9 96 +22 +22 комфорт 1012.1 1007.1
06 12.06 В 2 20 км ясно +23.0 +20.2 84 +30 +35 очень
душно
1013.2 1008.2 +19.6
09 12.06 З 6 20 км ясно +27.6 +23.4 78 +37 +44 очень
душно
1013.8 1008.8
12 12.06 З 4 20 км ясно +30.5 +21.0 57 +38 +50 очень
душно
1015.0 1010.1
15 12.06 Ю 8 20 км ясно +31.4 +18.1 45 +36 +37 очень
душно
1012.9 1008.1
18 12.06 ЮВ 4 15 км 5/0
[As op]
+28.4 +17.3 51 +32 +32 душно 1013.0 1008.1 +32.2
21 12.06 ЮВ 6 10 км 3/0
[Ac trans]
+25.2 +21.9 82 +32 +32 очень
душно
1013.8 1008.9
00 13.06 ЮВ 4 10 км ясно +24.0 +22.2 90 +31 +31 очень
душно
1014.5 1009.5
03 13.06 В 4 10 км ясно +21.6 +21.0 96 +27 +27 душно 1014.5 1009.5
06 13.06 В 2 20 км ясно +20.0 +18.7 92 +24 +29 комфорт 1014.5 1009.5 +19.0
09 13.06 З 4 20 км ясно +28.0 +22.7 73 +37 +49 очень
душно
1016.0 1011.0
12 13.06 штиль 0 20 км ясно +32.0 +21.9 55 +41 +65 опасность
перегрева
1015.5 1010.7
15 13.06 штиль 0 20 км ясно +32.2 +16.1 38 +35 +44 очень
душно
1015.1 1010.3
18 13.06 Ю 10 20 км ясно +29.0 +16.5 47 +32 +32 душно 1015.2 1010.3 +33.0
21 13.06 В 6 10 км ясно +23.6 +17.3 68 +27 +27 жарко 1016.2 1011.2
00 14.06 В 6 10 км ясно +22.0 +20.0 88 +28 +28 душно 1016.3 1011.2
03 14.06 В 6 10 км ясно +19.8 +17.4 86 +22 +22 комфорт 1016.3 1011.2
06 14.06 В 6 20 км ясно +21.0 +16.4 75 +24 +27 комфорт 1016.3 1011.2 +18.0
09 14.06 З 6 20 км ясно +27.4 +17.5 55 +32 +38 очень
душно
1016.8 1011.8
12 14.06 З 6 20 км ясно +31.6 +14.8 36 +34 +41 душно 1016.1 1011.2
15 14.06 ЮЗ 8 20 км ясно +32.6 +21.1 51 +40 +42 очень
душно
1015.1 1010.2
18 14.06 ЮЗ 6 20 км ясно +30.0 +20.2 56 +37 +37 очень
душно
1017.0 1012.0 +33.6
21 14.06 Ю 4 10 км ясно +26.6 +23.6 84 +36 +36 очень
душно
1014.4 1009.5
03 15.06 В 4 10 км ясно +23.0 +21.2 90 +31 +31 очень
душно
1014.5 1009.5
06 15.06 штиль 0 20 км ясно +24.0 +21.5 86 +31 +38 очень
душно
1014.5 1009.5 +21.0
09 15.06 СЗ 2 20 км ясно +29.6 +19.6 55 +36 +53 опасность
солнечного
удара
1014.2 1009.3
12 15.06 штиль 0 20 км ясно +33.0 +17.5 40 +37 +62 опасность
солнечного
удара
1012.7 1007.9
15 15.06 штиль 0 15 км ясно +35.2 +15.0 30 +37 +46 очень
душно
1010.9 1006.1
18 15.06 штиль 0 20 км ясно +31.4 +26.4 75 +48 +48 опасность
перегрева
1010.8 1005.9 +35.8
21 15.06 штиль 0 10 км 4/0
[Ci fib]
+26.4 +19.8 67 +32 +32 очень
душно
1011.1 1006.1

 

Местоположение метеостанции Шкодра (Албания): широта 42.10 долгота 19.53 высота над уровнем моря 43 м.

В архиве по умолчанию представлена погода в Шкодре за последнюю неделю. Архивные данные за месяц целиком и за предыдущие месяцы, начиная с января 2011 года, Вы можете получить, выбрав интересующий диапазон дат из раскрывающегося списка и нажав кнопку "Ввод!".


*Определитесь, кто Вы:
робот инопланетянин человек

Внимание! Время в таблицах - всемирное. Для получения местного времени необходимо прибавить поправку, которая равна 1 ч.

Смотрите также архив погоды в соседних городах и на ближайших метеорологических станциях:

Погода в Баре (Черногория) (35 км)
Погода в Подгорице (Черногория) (38 км)
Погода в Подгорица-Граде (Черногория) (42 км)
Погода в Тивате (Черногория) (74 км)
Погода в Пешкопии (Албания) (88 км)
Погода в Тиране (Албания) (88 км)
Погода в Никшиче (Черногория) (88 км)
Погода в Дурресе (Албания) (89 км)
Погода в Тиране Лапрака (Албания) (94 км)
Погода в Эльбасане (Албания) (114 км)

Пояснения к столбцам:

Ветер - указаны скорость ветра в м/с - средняя за 10 мин, порывы в срок и между сроками (в фигурных скобках) и направление, откуда дует ветер: С - северный, СВ - северо-восточный, В - восточный, ЮВ - юго-восточный, Ю - южный, ЮЗ - юго-западный, З - западный, СЗ - северо-западный.
Видимость - горизонтальная дальность видимости в метрах или километрах. При видимости от 1 до 10 км при отсутствии осадков обычно наблюдается дымка, при ухудшении видимости до 1 км и менее - туман. В сухую погоду видимость может ухудшаться дымом, пылью или мглою.
Явления - указаны атмосферные явления, наблюдавшиеся в срок или в последний час перед сроком; фигурными скобками обозначены явления, наблюдавшиеся между сроками (за 1-3 часа до срока); квадратными скобками обозначены град или гололедные отложения с указанием их диаметра в мм.
Облачность - указаны через наклонную черту общая и нижняя облачность в баллах и высота нижней границы облаков в метрах; квадратными скобками обозначены формы облаков: Ci - перистые, Cs - перисто-слоистые, Cc - перисто-кучевые, Ac - высококучевые, As - высокослоистые, Sc - слоисто-кучевые, Ns - слоисто-дождевые, Cu - кучевые, Cb - кучево-дождевые. Подробнее классификацию облаков см. в Атласе облаков (PDF).
T - Температура воздуха - температура, измеренная на высоте 2 м над землей.
Td - Температура точки росы - температура, при понижении до которой содержащийся в воздухе водяной пар достигнет насыщения.
f - Относительная влажность воздуха - влажноcть воздуха, измеренная на высоте 2 м над землей.
Te - Эффективная температура - температура, которую ощущает одетый по сезону человек в тени. Характеристика душности погоды. При расчете учитывается влияние влажности воздуха и скорости ветра на теплоощущения человека.
Tes - Эффективная температура на солнце - температура, которую ощущает человек, с поправкой на солнечный нагрев. Характеристика знойности погоды. Зависит от высоты солнца над горизонтом, облачности и скорости ветра. Ночью, в пасмурную погоду, а также при ветре 12 м/с и более поправка равна нулю.
P - Атмосферное давление - приведенное к уровню моря атмосферное давление.
Po - Атмосферное давление - измеренное на уровне метеостанции атмосферное давление.
Tmin - Минимальная температура - минимум температуры воздуха на высоте 2 м над землей.
Tmax - Максимальная температура - максимум температуры воздуха на высоте 2 м над землей.
R - Количество осадков - Количество выпавших осадков за период времени, мм. При наведении курсора мыши на число - период времени, за который выпало указанное количество осадков.
R24 - Количество осадков - Количество выпавших осадков за 24 часа, мм.
S - Снежный покров - Высота снежного покрова, см. При наведении курсора мыши на число - состояние снежного покрова и степень покрытия местности в баллах.